THOR ABLESTAR DEB, 2432

Orbit data source: Space-Track

THOR ABLESTAR DEB, 2432 is space debris in LEO originally from a launch on Thu, 05 Dec 1963 UTC launched from the Air Force Western Test Range (AFWTR). Debris objects in space refer to the collection of defunct objects orbiting the Earth. Examples of debris include non-operational satellites, rocket bodies, and fragments generated from explosions, collisions, or faulty payload assembly.

Loading next visibility...
Identifier
2432, 1963-049G
Orbit
LEO
Country
Flag of USUS
Related business
Manufacturer
Unknown
Mission
Spacecraft
Bus & Motor
Unknown
Mass
Unknown
Launch date (UTC)
1963-12-05 (62 years ago)
Launch vehicle
Unknown
Launch site
Air Force Western Test Range (AFWTR)
Object type
Payload
Rocket body
Debris
Shape & HBR
Unknown shape, 0.2 m
Radar Cross Section
Medium (>0.1 m² and <1 m²)

Expand to show TLE details & history
Last TLE update: 16 hours ago

TLE from 16 hours ago
0 THOR ABLESTAR DEB
1  2432U 63049G   26101.91429602  .00000100  00000-0  14562-3 0  9998
2  2432  89.9192  71.1640 0036264  66.8978 310.0826 13.48248653 63772
Epoch: 2026-04-11T21:56Z
TLE epoch observation values (Epoch: 2026-04-11T21:56:35.176Z)
Latitude
16.64455°
Longitude
-98.0853°
Altitude
1,063.674 km
Speed
7.33 km/s
True Right ascension
04h 44m 45s
True Declination
16° 33' 15"
Sunlit
Object was in daylight at epoch
Visualization orbit readout
Latitude
Unknown
Longitude
Unknown
Altitude
Unknown
Speed
Unknown
Apparent Right ascension
Unknown
Apparent Declination
Unknown
Sunlit
N/A
Visualization observer readout
Local Sidereal Time
20:02:53
Azimuth
Unknown
Elevation
Unknown
Doppler factor
Unknown
Orbital elements
Apogee altitude
1,102.792 km
Perigee altitude
1,048.731 km
Semi-major axis
7,453.898 km
Eccentricity
0.00363
Inclination
89.9192°
RAAN
71.164°
Arg. of periapsis
66.8978°
True anomaly
309.76372°
Mean anomaly
310.0826°
Eccentric anomaly
309.92325°
Mean motion
3.37262 °/min
Orbital period
106.74 mins
BSTAR
0.00014562
Loading maneuver chart data...
Computing Atmospheric mass density...
Loading historical data...
Loading historical data...
Loading historical data...
Loading historical data...
Loading historical data...
Loading historical data...
Loading historical data...

Documentation

Showing up to 5 results
|